| time (UTC) | temp C | wind direction | speed KPH | gust KPH | rain 1hr cm | rain 24hr cm | rain mn cm | humidity % | barometer mb |
| 20260905011519 | 13 | 267 | 1.6 | 9.7 | 0.00 | 0.69 | 0.00 | 92 | 1016.7 |
| 20260905010020 | 13 | 355 | 1.6 | 6.4 | 0.00 | 0.69 | 0.00 | 93 | 1016.7 |
| 20260905004518 | 13 | 325 | 1.6 | 6.4 | 0.00 | 0.81 | 0.00 | 92 | 1016.4 |
| 20260905003021 | 13 | 261 | 3.2 | 16.1 | 0.00 | 0.81 | 0.00 | 92 | 1016.4 |
| 20260905001514 | 13 | 254 | 1.6 | 6.4 | 0.00 | 0.81 | 0.00 | 92 | 1016.4 |
| 20260905000029 | 13 | 312 | 3.2 | 11.3 | 0.00 | 0.81 | 0.00 | 92 | 1016.3 |
| 20260904234512 | 13 | 18 | 1.6 | 12.9 | 0.00 | 0.81 | 0.00 | 91 | 1016.2 |
| 20260904233010 | 14 | 294 | 1.6 | 12.9 | 0.00 | 0.81 | 0.00 | 91 | 1016.4 |
| 20260904230008 | 14 | 318 | 1.6 | 9.7 | 0.00 | 0.81 | 0.00 | 92 | 1016.1 |
| 20260904224503 | 15 | 279 | 1.6 | 12.9 | 0.00 | 0.81 | 0.00 | 92 | 1015.8 |
| 20260904223001 | 15 | 316 | 8.0 | 24.1 | 0.00 | 0.81 | 0.00 | 92 | 1016.0 |
| 20260904221558 | 15 | 343 | 4.8 | 12.9 | 0.00 | 0.81 | 0.00 | 93 | 1015.6 |
| 20260904220112 | 15 | 234 | 1.6 | 12.9 | 0.00 | 0.81 | 0.00 | 93 | 1015.6 |
| 20260904214555 | 15 | 296 | 3.2 | 14.5 | 0.00 | 0.81 | 0.81 | 93 | 1015.5 |
| 20260904213055 | 15 | 338 | 4.8 | 14.5 | 0.00 | 0.81 | 0.81 | 93 | 1015.5 |
| 20260904211609 | 15 | 332 | 4.8 | 22.5 | 0.00 | 0.81 | 0.81 | 93 | 1015.5 |
| 20260904210055 | 15 | 258 | 4.8 | 17.7 | 0.00 | 0.81 | 0.81 | 94 | 1015.5 |
| 20260904204552 | 15 | 244 | 3.2 | 14.5 | 0.00 | 0.84 | 0.81 | 94 | 1015.2 |
| 20260904203053 | 15 | 259 | 4.8 | 14.5 | 0.00 | 0.84 | 0.81 | 94 | 1015.0 |
| 20260904201551 | 15 | 312 | 3.2 | 17.7 | 0.00 | 0.84 | 0.81 | 94 | 1015.1 |
| 20260904200053 | 15 | 247 | 4.8 | 16.1 | 0.00 | 0.84 | 0.81 | 94 | 1014.6 |
| 20260904194551 | 15 | 324 | 3.2 | 19.3 | 0.00 | 0.86 | 0.81 | 94 | 1014.8 |
| 20260904193047 | 15 | 262 | 3.2 | 17.7 | 0.03 | 0.86 | 0.81 | 94 | 1014.6 |
| 20260904191548 | 15 | 105 | 3.2 | 16.1 | 0.05 | 0.86 | 0.81 | 94 | 1014.4 |
| 20260904190048 | 15 | 236 | 4.8 | 17.7 | 0.18 | 0.86 | 0.81 | 94 | 1014.1 |
| 20260904184552 | 15 | 15 | 4.8 | 22.5 | 0.23 | 0.86 | 0.81 | 94 | 1013.9 |
| 20260904183051 | 15 | 266 | 4.8 | 20.9 | 0.41 | 0.84 | 0.79 | 94 | 1013.7 |
| 20260904181543 | 15 | 259 | 1.6 | 14.5 | 0.51 | 0.81 | 0.79 | 93 | 1013.6 |
| 20260904180058 | 15 | 244 | 3.2 | 14.5 | 0.46 | 0.69 | 0.64 | 93 | 1013.3 |
| 20260904174543 | 16 | 254 | 4.8 | 20.9 | 0.43 | 0.61 | 0.58 | 92 | 1013.4 |
| 20260904173042 | 16 | 330 | 3.2 | 12.9 | 0.25 | 0.43 | 0.41 | 91 | 1013.3 |
| 20260904171537 | 16 | 313 | 4.8 | 17.7 | 0.13 | 0.30 | 0.25 | 89 | 1013.0 |
| 20260904170042 | 18 | 222 | 3.2 | 19.3 | 0.05 | 0.23 | 0.18 | 85 | 1012.9 |
| 20260904164533 | 20 | 251 | 8.0 | 35.4 | 0.00 | 0.18 | 0.15 | 80 | 1012.4 |
| 20260904163031 | 20 | 355 | 9.7 | 38.6 | 0.00 | 0.18 | 0.15 | 79 | 1012.4 |
| 20260904161532 | 20 | 246 | 9.7 | 32.2 | 0.00 | 0.18 | 0.15 | 79 | 1012.5 |
| 20260904160030 | 20 | 209 | 16.1 | 37.0 | 0.00 | 0.18 | 0.15 | 78 | 1012.5 |
| 20260904154530 | 20 | 302 | 12.9 | 32.2 | 0.00 | 0.18 | 0.15 | 78 | 1012.5 |
| 20260904153028 | 20 | 210 | 14.5 | 38.6 | 0.00 | 0.18 | 0.15 | 77 | 1012.5 |
| 20260904151527 | 21 | 350 | 6.4 | 32.2 | 0.00 | 0.18 | 0.15 | 78 | 1012.6 |
| 20260904150034 | 21 | 252 | 6.4 | 27.4 | 0.00 | 0.18 | 0.15 | 78 | 1012.7 |
| 20260904144528 | 21 | 298 | 11.3 | 25.7 | 0.00 | 0.18 | 0.15 | 75 | 1012.7 |
| 20260904143026 | 21 | 241 | 8.0 | 37.0 | 0.00 | 0.18 | 0.15 | 73 | 1012.7 |
| 20260904141533 | 22 | 332 | 8.0 | 32.2 | 0.00 | 0.18 | 0.15 | 73 | 1012.6 |
| 20260904140044 | 21 | 316 | 11.3 | 38.6 | 0.00 | 0.18 | 0.15 | 74 | 1012.6 |
| 20260904134523 | 21 | 325 | 9.7 | 19.3 | 0.00 | 0.18 | 0.15 | 74 | 1012.5 |
| 20260904133023 | 21 | 257 | 9.7 | 43.5 | 0.00 | 0.18 | 0.15 | 75 | 1012.6 |
| 20260904131521 | 22 | 244 | 4.8 | 32.2 | 0.00 | 0.18 | 0.15 | 75 | 1012.3 |
| 20260904130020 | 21 | 286 | 8.0 | 33.8 | 0.00 | 0.18 | 0.15 | 75 | 1012.3 |
| 20260904124516 | 21 | 231 | 6.4 | 24.1 | 0.00 | 0.18 | 0.15 | 77 | 1012.3 |
| 20260904123017 | 21 | 251 | 11.3 | 30.6 | 0.00 | 0.18 | 0.15 | 76 | 1012.4 |
| 20260904121517 | 21 | 251 | 6.4 | 22.5 | 0.00 | 0.18 | 0.15 | 77 | 1012.6 |
| 20260904120017 | 21 | 251 | 11.3 | 46.7 | 0.00 | 0.18 | 0.15 | 76 | 1012.7 |
| 20260904114520 | 21 | 273 | 8.0 | 27.4 | 0.00 | 0.18 | 0.15 | 77 | 1012.5 |
| 20260904113026 | 21 | 344 | 14.5 | 32.2 | 0.00 | 0.18 | 0.15 | 76 | 1012.6 |
| 20260904111512 | 21 | 228 | 12.9 | 30.6 | 0.00 | 0.18 | 0.15 | 76 | 1012.5 |
| 20260904110009 | 21 | 255 | 12.9 | 33.8 | 0.00 | 0.18 | 0.15 | 79 | 1012.6 |
| 20260904104506 | 20 | 32 | 6.4 | 27.4 | 0.00 | 0.18 | 0.15 | 82 | 1012.8 |
| 20260904103005 | 20 | 238 | 9.7 | 20.9 | 0.00 | 0.18 | 0.15 | 82 | 1013.0 |
| 20260904101504 | 20 | 279 | 9.7 | 27.4 | 0.00 | 0.18 | 0.15 | 82 | 1013.1 |
| 20260904100003 | 20 | 42 | 4.8 | 24.1 | 0.00 | 0.18 | 0.15 | 84 | 1013.3 |
| 20260904094500 | 20 | 252 | 14.5 | 30.6 | 0.00 | 0.18 | 0.15 | 84 | 1013.3 |
| 20260904093101 | 20 | 253 | 4.8 | 32.2 | 0.00 | 0.18 | 0.15 | 84 | 1013.4 |
| 20260904093002 | 20 | 247 | 8.0 | 32.2 | 0.00 | 0.18 | 0.15 | 84 | 1013.4 |
| 20260904091600 | 20 | 263 | 9.7 | 27.4 | 0.00 | 0.18 | 0.15 | 84 | 1013.4 |
| 20260904090059 | 20 | 265 | 8.0 | 29.0 | 0.00 | 0.18 | 0.15 | 85 | 1013.2 |
| 20260904084559 | 20 | 265 | 6.4 | 25.7 | 0.00 | 0.18 | 0.15 | 86 | 1013.1 |
| 20260904083106 | 20 | 246 | 9.7 | 25.7 | 0.00 | 0.18 | 0.15 | 86 | 1012.9 |
| 20260904081555 | 20 | 242 | 12.9 | 29.0 | 0.00 | 0.18 | 0.15 | 86 | 1013.1 |
| 20260904080058 | 19 | 263 | 11.3 | 30.6 | 0.00 | 0.18 | 0.15 | 88 | 1013.2 |
| 20260904074555 | 19 | 263 | 6.4 | 29.0 | 0.00 | 0.18 | 0.15 | 88 | 1013.4 |
| 20260904073100 | 19 | 230 | 11.3 | 22.5 | 0.00 | 0.18 | 0.15 | 89 | 1013.5 |
| 20260904071546 | 18 | 232 | 11.3 | 24.1 | 0.00 | 0.18 | 0.15 | 89 | 1013.7 |
| 20260904070046 | 18 | 246 | 9.7 | 30.6 | 0.00 | 0.18 | 0.15 | 90 | 1013.8 |
| 20260904064541 | 18 | 261 | 11.3 | 32.2 | 0.00 | 0.18 | 0.15 | 91 | 1014.0 |
| 20260904063035 | 18 | 259 | 12.9 | 24.1 | 0.00 | 0.18 | 0.15 | 91 | 1014.1 |
| 20260904061538 | 18 | 206 | 4.8 | 24.1 | 0.00 | 0.18 | 0.15 | 91 | 1014.2 |
| 20260904060046 | 18 | 254 | 11.3 | 22.5 | 0.00 | 0.18 | 0.15 | 91 | 1014.3 |
| 20260904054538 | 18 | 267 | 11.3 | 25.7 | 0.00 | 0.18 | 0.15 | 92 | 1014.6 |
| 20260904053031 | 18 | 344 | 9.7 | 20.9 | 0.00 | 0.18 | 0.15 | 92 | 1014.7 |
| 20260904051525 | 18 | 243 | 8.0 | 22.5 | 0.00 | 0.18 | 0.15 | 92 | 1014.7 |
| 20260904050038 | 18 | 211 | 12.9 | 24.1 | 0.00 | 0.18 | 0.15 | 91 | 1014.9 |
| 20260904044521 | 18 | 271 | 6.4 | 25.7 | 0.00 | 0.18 | 0.15 | 91 | 1014.8 |
| 20260904043016 | 18 | 264 | 8.0 | 30.6 | 0.00 | 0.18 | 0.15 | 92 | 1015.1 |
| 20260904041518 | 18 | 255 | 6.4 | 19.3 | 0.00 | 0.18 | 0.15 | 92 | 1015.2 |
| 20260904040026 | 18 | 251 | 4.8 | 25.7 | 0.00 | 0.18 | 0.15 | 92 | 1015.4 |
| 20260904034513 | 17 | 221 | 8.0 | 19.3 | 0.00 | 0.18 | 0.15 | 92 | 1015.5 |
| 20260904033011 | 17 | 230 | 8.0 | 24.1 | 0.00 | 0.18 | 0.15 | 92 | 1015.6 |
| 20260904031509 | 17 | 274 | 6.4 | 16.1 | 0.00 | 0.18 | 0.15 | 93 | 1015.8 |
| 20260904030006 | 17 | 266 | 9.7 | 27.4 | 0.00 | 0.18 | 0.15 | 93 | 1015.9 |
| 20260904024505 | 17 | 211 | 8.0 | 20.9 | 0.00 | 0.18 | 0.15 | 93 | 1016.3 |
| 20260904023003 | 17 | 222 | 6.4 | 27.4 | 0.00 | 0.18 | 0.15 | 93 | 1016.3 |
| 20260904021503 | 17 | 260 | 9.7 | 24.1 | 0.00 | 0.18 | 0.15 | 93 | 1016.4 |
| 20260904014559 | 17 | 323 | 11.3 | 24.1 | 0.00 | 0.18 | 0.15 | 93 | 1016.7 |
| 20260904013121 | 17 | 261 | 11.3 | 30.6 | 0.00 | 0.18 | 0.15 | 93 | 1016.9 |